Year,Month,Day,Hour,Minute,Value (Times are PST for temperature in C)
2019,02,15,00,00,1.50
2019,02,15,00,01,1.50
2019,02,15,00,02,1.50
2019,02,15,00,03,1.50
2019,02,15,00,04,1.50
2019,02,15,00,05,1.50
2019,02,15,00,06,1.50
2019,02,15,00,07,1.50
2019,02,15,00,08,1.50
2019,02,15,00,09,1.50
2019,02,15,00,10,1.50
2019,02,15,00,11,1.50
2019,02,15,00,12,1.50
2019,02,15,00,13,1.50
2019,02,15,00,14,1.50
2019,02,15,00,15,1.50
2019,02,15,00,16,1.50
2019,02,15,00,17,1.50
2019,02,15,00,18,1.50
2019,02,15,00,19,1.50
2019,02,15,00,20,1.50
2019,02,15,00,21,1.50
2019,02,15,00,22,1.50
2019,02,15,00,23,1.50
2019,02,15,00,24,1.50
2019,02,15,00,25,1.50
2019,02,15,00,26,1.50
2019,02,15,00,27,1.50
2019,02,15,00,28,1.50
2019,02,15,00,29,1.60
2019,02,15,00,30,1.50
2019,02,15,00,31,1.50
2019,02,15,00,32,1.60
2019,02,15,00,33,1.60
2019,02,15,00,34,1.60
2019,02,15,00,35,1.60
2019,02,15,00,36,1.60
2019,02,15,00,37,1.60
2019,02,15,00,38,1.60
2019,02,15,00,39,1.60
2019,02,15,00,40,1.50
2019,02,15,00,41,1.50
2019,02,15,00,42,1.50
2019,02,15,00,43,1.60
2019,02,15,00,44,1.60
2019,02,15,00,45,1.60
2019,02,15,00,46,1.60
2019,02,15,00,47,1.50
2019,02,15,00,48,1.50
2019,02,15,00,49,1.50
2019,02,15,00,50,1.50
2019,02,15,00,51,1.50
2019,02,15,00,52,1.50
2019,02,15,00,53,1.50
2019,02,15,00,54,1.60
2019,02,15,00,55,1.60
2019,02,15,00,56,1.60
2019,02,15,00,57,1.60
2019,02,15,00,58,1.60
2019,02,15,00,59,1.60
2019,02,15,01,00,1.60
2019,02,15,01,01,1.60
2019,02,15,01,02,1.60
2019,02,15,01,03,1.60
2019,02,15,01,04,1.60
2019,02,15,01,05,1.60
2019,02,15,01,06,1.60
2019,02,15,01,07,1.60
2019,02,15,01,08,1.60
2019,02,15,01,09,1.60
2019,02,15,01,10,1.60
2019,02,15,01,11,1.70
2019,02,15,01,12,1.70
2019,02,15,01,13,1.70
2019,02,15,01,14,1.70
2019,02,15,01,15,1.70
2019,02,15,01,16,1.70
2019,02,15,01,17,1.70
2019,02,15,01,18,1.70
2019,02,15,01,19,1.70
2019,02,15,01,20,1.70
2019,02,15,01,21,1.70
2019,02,15,01,22,1.80
2019,02,15,01,23,1.80
2019,02,15,01,24,1.80
2019,02,15,01,25,1.80
2019,02,15,01,26,1.80
2019,02,15,01,27,1.80
2019,02,15,01,28,1.80
2019,02,15,01,29,1.80
2019,02,15,01,30,1.80
2019,02,15,01,31,1.80
2019,02,15,01,32,1.80
2019,02,15,01,33,1.80
2019,02,15,01,34,1.80
2019,02,15,01,35,1.80
2019,02,15,01,36,1.80
2019,02,15,01,37,1.80
2019,02,15,01,38,1.80
2019,02,15,01,39,1.80
2019,02,15,01,40,1.80
2019,02,15,01,41,1.80
2019,02,15,01,42,1.80
2019,02,15,01,43,1.80
2019,02,15,01,44,1.80
2019,02,15,01,45,1.80
2019,02,15,01,46,1.80
2019,02,15,01,47,1.80
2019,02,15,01,48,1.80
2019,02,15,01,49,1.80
2019,02,15,01,50,1.80
2019,02,15,01,51,1.80
2019,02,15,01,52,1.80
2019,02,15,01,53,1.80
2019,02,15,01,54,1.80
2019,02,15,01,55,1.80
2019,02,15,01,56,1.80
2019,02,15,01,57,1.80
2019,02,15,01,58,1.80
2019,02,15,01,59,1.80
2019,02,15,02,00,1.80
2019,02,15,02,01,1.80
2019,02,15,02,02,1.80
2019,02,15,02,03,1.80
2019,02,15,02,04,1.80
2019,02,15,02,05,1.80
2019,02,15,02,06,1.80
2019,02,15,02,07,1.80
2019,02,15,02,08,1.80
2019,02,15,02,09,1.80
2019,02,15,02,10,1.90
2019,02,15,02,11,1.90
2019,02,15,02,12,1.90
2019,02,15,02,13,1.90
2019,02,15,02,14,2.00
2019,02,15,02,15,2.00
2019,02,15,02,16,2.00
2019,02,15,02,17,2.00
2019,02,15,02,18,2.00
2019,02,15,02,19,2.00
2019,02,15,02,20,2.00
2019,02,15,02,21,2.00
2019,02,15,02,22,2.10
2019,02,15,02,23,2.10
2019,02,15,02,24,2.10
2019,02,15,02,25,2.10
2019,02,15,02,26,2.10
2019,02,15,02,27,2.10
2019,02,15,02,28,2.10
2019,02,15,02,29,2.10
2019,02,15,02,30,2.10
2019,02,15,02,31,2.10
2019,02,15,02,32,2.20
2019,02,15,02,33,2.20
2019,02,15,02,34,2.20
2019,02,15,02,35,2.20
2019,02,15,02,36,2.20
2019,02,15,02,37,2.20
2019,02,15,02,38,2.20
2019,02,15,02,39,2.20
2019,02,15,02,40,2.20
2019,02,15,02,41,2.20
2019,02,15,02,42,2.20
2019,02,15,02,43,2.20
2019,02,15,02,44,2.20
2019,02,15,02,45,2.20
2019,02,15,02,46,2.20
2019,02,15,02,47,2.20
2019,02,15,02,48,2.20
2019,02,15,02,49,2.30
2019,02,15,02,50,2.30
2019,02,15,02,51,2.20
2019,02,15,02,52,2.30
2019,02,15,02,53,2.30
2019,02,15,02,54,2.30
2019,02,15,02,55,2.30
2019,02,15,02,56,2.30
2019,02,15,02,57,2.30
2019,02,15,02,58,2.30
2019,02,15,02,59,2.30
2019,02,15,03,00,2.30
2019,02,15,03,01,2.30
2019,02,15,03,02,2.30
2019,02,15,03,03,2.30
2019,02,15,03,04,2.30
2019,02,15,03,05,2.30
2019,02,15,03,06,2.30
2019,02,15,03,07,2.30
2019,02,15,03,08,2.30
2019,02,15,03,09,2.30
2019,02,15,03,10,2.30
2019,02,15,03,11,2.30
2019,02,15,03,12,2.30
2019,02,15,03,13,2.30
2019,02,15,03,14,2.30
2019,02,15,03,15,2.30
2019,02,15,03,16,2.30
2019,02,15,03,17,2.30
2019,02,15,03,18,2.30
2019,02,15,03,19,2.30
2019,02,15,03,20,2.30
2019,02,15,03,21,2.30
2019,02,15,03,22,2.30
2019,02,15,03,23,2.30
2019,02,15,03,24,2.30
2019,02,15,03,25,2.30
2019,02,15,03,26,2.30
2019,02,15,03,27,2.30
2019,02,15,03,28,2.30
2019,02,15,03,29,2.30
2019,02,15,03,30,2.30
2019,02,15,03,31,2.30
2019,02,15,03,32,2.40
2019,02,15,03,33,2.40
2019,02,15,03,34,2.40
2019,02,15,03,35,2.40
2019,02,15,03,36,2.40
2019,02,15,03,37,2.40
2019,02,15,03,38,2.30
2019,02,15,03,39,2.30
2019,02,15,03,40,2.30
2019,02,15,03,41,2.30
2019,02,15,03,42,2.30
2019,02,15,03,43,2.30
2019,02,15,03,44,2.30
2019,02,15,03,45,2.30
2019,02,15,03,46,2.30
2019,02,15,03,47,2.30
2019,02,15,03,48,2.30
2019,02,15,03,49,2.40
2019,02,15,03,50,2.40
2019,02,15,03,51,2.40
2019,02,15,03,52,2.40
2019,02,15,03,53,2.40
2019,02,15,03,54,2.40
2019,02,15,03,55,2.40
2019,02,15,03,56,2.40
2019,02,15,03,57,2.40
2019,02,15,03,58,2.50
2019,02,15,03,59,2.50
2019,02,15,04,00,2.50
2019,02,15,04,01,2.50
2019,02,15,04,02,2.50
2019,02,15,04,03,2.50
2019,02,15,04,04,2.50
2019,02,15,04,05,2.60
2019,02,15,04,06,2.60
2019,02,15,04,07,2.60
2019,02,15,04,08,2.70
2019,02,15,04,09,2.70
2019,02,15,04,10,2.80
2019,02,15,04,11,2.90
2019,02,15,04,12,3.10
2019,02,15,04,13,3.30
2019,02,15,04,14,3.30
2019,02,15,04,15,3.30
2019,02,15,04,16,3.30
2019,02,15,04,17,3.30
2019,02,15,04,18,3.40
2019,02,15,04,19,3.40
2019,02,15,04,20,3.50
2019,02,15,04,21,3.50
2019,02,15,04,22,3.40
2019,02,15,04,23,3.40
2019,02,15,04,24,3.50
2019,02,15,04,25,3.50
2019,02,15,04,26,3.50
2019,02,15,04,27,3.50
2019,02,15,04,28,3.50
2019,02,15,04,29,3.60
2019,02,15,04,30,3.60
2019,02,15,04,31,3.60
2019,02,15,04,32,3.60
2019,02,15,04,33,3.60
2019,02,15,04,34,3.60
2019,02,15,04,35,3.60
2019,02,15,04,36,3.70
2019,02,15,04,37,3.70
2019,02,15,04,38,3.80
2019,02,15,04,39,3.80
2019,02,15,04,40,3.80
2019,02,15,04,41,3.90
2019,02,15,04,42,3.90
2019,02,15,04,43,3.90
2019,02,15,04,44,3.90
2019,02,15,04,45,3.90
2019,02,15,04,46,3.90
2019,02,15,04,47,4.00
2019,02,15,04,48,4.00
2019,02,15,04,49,4.10
2019,02,15,04,50,4.20
2019,02,15,04,51,4.20
2019,02,15,04,52,4.30
2019,02,15,04,53,4.40
2019,02,15,04,54,4.50
2019,02,15,04,55,4.50
2019,02,15,04,56,4.60
2019,02,15,04,57,4.60
2019,02,15,04,58,4.60
2019,02,15,04,59,4.60
2019,02,15,05,00,4.60
2019,02,15,05,01,4.60
2019,02,15,05,02,4.50
2019,02,15,05,03,4.40
2019,02,15,05,04,4.30
2019,02,15,05,05,4.20
2019,02,15,05,06,4.10
2019,02,15,05,07,4.00
2019,02,15,05,08,3.90
2019,02,15,05,09,3.80
2019,02,15,05,10,3.80
2019,02,15,05,11,3.80
2019,02,15,05,12,3.80
2019,02,15,05,13,3.80
2019,02,15,05,14,3.80
2019,02,15,05,15,3.80
2019,02,15,05,16,3.80
2019,02,15,05,17,4.00
2019,02,15,05,18,4.10
2019,02,15,05,19,4.20
2019,02,15,05,20,4.20
2019,02,15,05,21,4.30
2019,02,15,05,22,4.40
2019,02,15,05,23,4.40
2019,02,15,05,24,4.50
2019,02,15,05,25,4.50
2019,02,15,05,26,4.50
2019,02,15,05,27,4.60
2019,02,15,05,28,4.60
2019,02,15,05,29,4.60
2019,02,15,05,30,4.60
2019,02,15,05,31,4.60
2019,02,15,05,32,4.60
2019,02,15,05,33,4.60
2019,02,15,05,34,4.60
2019,02,15,05,35,4.60
2019,02,15,05,36,4.60
2019,02,15,05,37,4.60
2019,02,15,05,38,4.60
2019,02,15,05,39,4.60
2019,02,15,05,40,4.60
2019,02,15,05,41,4.60
2019,02,15,05,42,4.60
2019,02,15,05,43,4.60
2019,02,15,05,44,4.60
2019,02,15,05,45,4.60
2019,02,15,05,46,4.60
2019,02,15,05,47,4.60
2019,02,15,05,48,4.50
2019,02,15,05,49,4.40
2019,02,15,05,50,4.20
2019,02,15,05,51,4.10
2019,02,15,05,52,3.90
2019,02,15,05,53,3.80
2019,02,15,05,54,3.70
2019,02,15,05,55,3.60
2019,02,15,05,56,3.50
2019,02,15,05,57,3.50
2019,02,15,05,58,3.40
2019,02,15,05,59,3.40
2019,02,15,06,00,3.40
2019,02,15,06,01,3.40
2019,02,15,06,02,3.40
2019,02,15,06,03,3.40
2019,02,15,06,04,3.40
2019,02,15,06,05,3.30
2019,02,15,06,06,3.30
2019,02,15,06,07,3.30
2019,02,15,06,08,3.30
2019,02,15,06,09,3.20
2019,02,15,06,10,3.20
2019,02,15,06,11,3.20
2019,02,15,06,12,3.10
2019,02,15,06,13,3.10
2019,02,15,06,14,3.10
2019,02,15,06,15,3.00
2019,02,15,06,16,2.90
2019,02,15,06,17,2.90
2019,02,15,06,18,2.90
2019,02,15,06,19,2.90
2019,02,15,06,20,2.90
2019,02,15,06,21,2.90
2019,02,15,06,22,2.90
2019,02,15,06,23,2.90
2019,02,15,06,24,2.90
2019,02,15,06,25,2.90
2019,02,15,06,26,2.90
2019,02,15,06,27,2.90
2019,02,15,06,28,2.90
2019,02,15,06,29,2.90
2019,02,15,06,30,2.90
2019,02,15,06,31,2.90
2019,02,15,06,32,2.90
2019,02,15,06,33,2.90
2019,02,15,06,34,2.90
2019,02,15,06,35,2.90
2019,02,15,06,36,2.90
2019,02,15,06,37,2.90
2019,02,15,06,38,2.90
2019,02,15,06,39,2.90
2019,02,15,06,40,2.90
2019,02,15,06,41,2.90
2019,02,15,06,42,2.90
2019,02,15,06,43,2.90
2019,02,15,06,44,2.90
2019,02,15,06,45,2.90
2019,02,15,06,46,2.90
2019,02,15,06,47,2.90
2019,02,15,06,48,2.90
2019,02,15,06,49,2.90
2019,02,15,06,50,2.90
2019,02,15,06,51,2.90
2019,02,15,06,52,2.90
2019,02,15,06,53,2.90
2019,02,15,06,54,2.90
2019,02,15,06,55,2.90
2019,02,15,06,56,2.90
2019,02,15,06,57,2.90
2019,02,15,06,58,2.90
2019,02,15,06,59,2.90
2019,02,15,07,00,2.90
2019,02,15,07,01,2.90
2019,02,15,07,02,3.00
2019,02,15,07,03,3.10
2019,02,15,07,04,3.10
2019,02,15,07,05,3.10
2019,02,15,07,06,3.10
2019,02,15,07,07,3.10
2019,02,15,07,08,3.10
2019,02,15,07,09,3.10
2019,02,15,07,10,3.10
2019,02,15,07,11,3.10
2019,02,15,07,12,3.10
2019,02,15,07,13,3.10
2019,02,15,07,14,3.10
2019,02,15,07,15,3.10
2019,02,15,07,16,3.10
2019,02,15,07,17,3.10
2019,02,15,07,18,3.10
2019,02,15,07,19,3.10
2019,02,15,07,20,3.10
2019,02,15,07,21,3.10
2019,02,15,07,22,3.10
2019,02,15,07,23,3.10
2019,02,15,07,24,3.10
2019,02,15,07,25,3.10
2019,02,15,07,26,3.10
2019,02,15,07,27,3.10
2019,02,15,07,28,3.10
2019,02,15,07,29,3.10
2019,02,15,07,30,3.10
2019,02,15,07,31,3.10
2019,02,15,07,32,3.10
2019,02,15,07,33,3.10
2019,02,15,07,34,3.10
2019,02,15,07,35,3.10
2019,02,15,07,36,3.10
2019,02,15,07,37,3.10
2019,02,15,07,38,3.10
2019,02,15,07,39,3.10
2019,02,15,07,40,3.10
2019,02,15,07,41,3.10
2019,02,15,07,42,3.00
2019,02,15,07,43,2.90
2019,02,15,07,44,2.90
2019,02,15,07,45,2.90
2019,02,15,07,46,2.90
2019,02,15,07,47,2.90
2019,02,15,07,48,2.90
2019,02,15,07,49,2.90
2019,02,15,07,50,2.90
2019,02,15,07,51,2.90
2019,02,15,07,52,2.90
2019,02,15,07,53,2.90
2019,02,15,07,54,2.90
2019,02,15,07,55,2.90
2019,02,15,07,56,2.90
2019,02,15,07,57,2.90
2019,02,15,07,58,2.90
2019,02,15,07,59,2.90
2019,02,15,08,00,2.90
2019,02,15,08,01,2.90
2019,02,15,08,02,2.90
2019,02,15,08,03,2.90
2019,02,15,08,04,2.90
2019,02,15,08,05,2.90
2019,02,15,08,06,2.90
2019,02,15,08,07,2.90
2019,02,15,08,08,2.90
2019,02,15,08,09,2.90
2019,02,15,08,10,2.90
2019,02,15,08,11,2.90
2019,02,15,08,12,2.90
2019,02,15,08,13,2.90
2019,02,15,08,14,2.90
2019,02,15,08,15,2.90
2019,02,15,08,16,2.90
2019,02,15,08,17,2.90
2019,02,15,08,18,2.90
2019,02,15,08,19,2.90
2019,02,15,08,20,2.90
2019,02,15,08,21,2.90
2019,02,15,08,22,2.90
2019,02,15,08,23,2.90
2019,02,15,08,24,2.90
2019,02,15,08,25,2.90
2019,02,15,08,26,2.90
2019,02,15,08,27,2.90
2019,02,15,08,28,2.90
2019,02,15,08,29,2.90
2019,02,15,08,30,2.90
2019,02,15,08,31,2.90
2019,02,15,08,32,2.90
2019,02,15,08,33,2.90
2019,02,15,08,34,2.90
2019,02,15,08,35,2.90
2019,02,15,08,36,2.90
2019,02,15,08,37,2.90
2019,02,15,08,38,2.90
2019,02,15,08,39,2.90
2019,02,15,08,40,2.90
2019,02,15,08,41,2.90
2019,02,15,08,42,2.90
2019,02,15,08,43,2.90
2019,02,15,08,44,2.90
2019,02,15,08,45,2.90
2019,02,15,08,46,2.90
2019,02,15,08,47,2.90
2019,02,15,08,48,2.90
2019,02,15,08,49,2.90
2019,02,15,08,50,2.90
2019,02,15,08,51,2.90
2019,02,15,08,52,2.90
2019,02,15,08,53,2.90
2019,02,15,08,54,2.90
2019,02,15,08,55,2.90
2019,02,15,08,56,2.90
2019,02,15,08,57,2.90
2019,02,15,08,58,2.90
2019,02,15,08,59,2.90
2019,02,15,09,00,2.90
2019,02,15,09,01,2.90
2019,02,15,09,02,2.90
2019,02,15,09,03,2.90
2019,02,15,09,04,2.90
2019,02,15,09,05,2.90
2019,02,15,09,06,2.90
2019,02,15,09,07,2.90
2019,02,15,09,08,2.90
2019,02,15,09,09,2.90
2019,02,15,09,10,2.90
2019,02,15,09,11,2.90
2019,02,15,09,12,2.90
2019,02,15,09,13,2.90
2019,02,15,09,14,2.90
2019,02,15,09,15,2.90
2019,02,15,09,16,2.90
2019,02,15,09,17,2.90
2019,02,15,09,18,3.10
2019,02,15,09,19,3.10
2019,02,15,09,20,3.10
2019,02,15,09,21,3.10
2019,02,15,09,22,3.10
2019,02,15,09,23,3.10
2019,02,15,09,24,3.10
2019,02,15,09,25,3.10
2019,02,15,09,26,3.10
2019,02,15,09,27,3.10
2019,02,15,09,28,3.10
2019,02,15,09,29,3.10
2019,02,15,09,30,3.10
2019,02,15,09,31,3.10
2019,02,15,09,32,3.10
2019,02,15,09,33,3.10
2019,02,15,09,34,3.10
2019,02,15,09,35,3.10
2019,02,15,09,36,3.10
2019,02,15,09,37,3.10
2019,02,15,09,38,3.10
2019,02,15,09,39,3.10
2019,02,15,09,40,3.10
2019,02,15,09,41,3.10
2019,02,15,09,42,3.10
2019,02,15,09,43,3.10
2019,02,15,09,44,3.10
2019,02,15,09,45,3.10
2019,02,15,09,46,3.10
2019,02,15,09,47,3.10
2019,02,15,09,48,3.10
2019,02,15,09,49,3.10
2019,02,15,09,50,3.10
2019,02,15,09,51,3.10
2019,02,15,09,52,3.10
2019,02,15,09,53,3.10
2019,02,15,09,54,3.10
2019,02,15,09,55,3.10
2019,02,15,09,56,3.10
2019,02,15,09,57,3.10
2019,02,15,09,58,3.10
2019,02,15,09,59,3.10
2019,02,15,10,00,3.10
2019,02,15,10,01,3.10
2019,02,15,10,02,3.10
2019,02,15,10,03,3.10
2019,02,15,10,04,3.10
2019,02,15,10,05,3.10
2019,02,15,10,06,3.10
2019,02,15,10,07,3.10
2019,02,15,10,08,3.10
2019,02,15,10,09,3.10
2019,02,15,10,10,3.10
2019,02,15,10,11,3.20
2019,02,15,10,12,3.20
2019,02,15,10,13,3.20
2019,02,15,10,14,3.20
2019,02,15,10,15,3.20
2019,02,15,10,16,3.20
2019,02,15,10,17,3.20
2019,02,15,10,18,3.20
2019,02,15,10,19,3.30
2019,02,15,10,20,3.30
2019,02,15,10,21,3.30
2019,02,15,10,22,3.30
2019,02,15,10,23,3.30
2019,02,15,10,24,3.30
2019,02,15,10,25,3.30
2019,02,15,10,26,3.30
2019,02,15,10,27,3.30
2019,02,15,10,28,3.30
2019,02,15,10,29,3.30
2019,02,15,10,30,3.30
2019,02,15,10,31,3.30
2019,02,15,10,32,3.30
2019,02,15,10,33,3.30
2019,02,15,10,34,3.30
2019,02,15,10,35,3.30
2019,02,15,10,36,3.30
2019,02,15,10,37,3.30
2019,02,15,10,38,3.30
2019,02,15,10,39,3.30
2019,02,15,10,40,3.30
2019,02,15,10,41,3.30
2019,02,15,10,42,3.30
2019,02,15,10,43,3.30
2019,02,15,10,44,3.30
2019,02,15,10,45,3.30
2019,02,15,10,46,3.30
2019,02,15,10,47,3.30
2019,02,15,10,48,3.30
2019,02,15,10,49,3.30
2019,02,15,10,50,3.30
2019,02,15,10,51,3.30
2019,02,15,10,52,3.30
2019,02,15,10,53,3.30
2019,02,15,10,54,3.30
2019,02,15,10,55,3.30
2019,02,15,10,56,3.30
2019,02,15,10,57,3.30
2019,02,15,10,58,3.30
2019,02,15,10,59,3.30
2019,02,15,11,00,3.30
2019,02,15,11,01,3.30
2019,02,15,11,02,3.40
2019,02,15,11,03,3.40
2019,02,15,11,04,3.40
2019,02,15,11,05,3.40
2019,02,15,11,06,3.40
2019,02,15,11,07,3.50
2019,02,15,11,08,3.50
2019,02,15,11,09,3.50
2019,02,15,11,10,3.50
2019,02,15,11,11,3.50
2019,02,15,11,12,3.60
2019,02,15,11,13,3.60
2019,02,15,11,14,3.60
2019,02,15,11,15,3.60
2019,02,15,11,16,3.60
2019,02,15,11,17,3.70
2019,02,15,11,18,3.70
2019,02,15,11,19,3.70
2019,02,15,11,20,3.80
2019,02,15,11,21,3.80
2019,02,15,11,22,3.80
2019,02,15,11,23,3.80
2019,02,15,11,24,3.80
2019,02,15,11,25,3.80
2019,02,15,11,26,3.90
2019,02,15,11,27,3.90
2019,02,15,11,28,4.00
2019,02,15,11,29,4.00
2019,02,15,11,30,4.00
2019,02,15,11,31,4.10
2019,02,15,11,32,4.10
2019,02,15,11,33,4.10
2019,02,15,11,34,4.10
2019,02,15,11,35,4.10
2019,02,15,11,36,4.10
2019,02,15,11,37,4.10
2019,02,15,11,38,4.10
2019,02,15,11,39,4.10
2019,02,15,11,40,4.10
2019,02,15,11,41,4.10
2019,02,15,11,42,4.10
2019,02,15,11,43,4.10
2019,02,15,11,44,4.10
2019,02,15,11,45,4.10
2019,02,15,11,46,4.10
2019,02,15,11,47,4.00
2019,02,15,11,48,4.00
2019,02,15,11,49,4.00
2019,02,15,11,50,3.90
2019,02,15,11,51,3.90
2019,02,15,11,52,3.90
2019,02,15,11,53,3.90
2019,02,15,11,54,3.80
2019,02,15,11,55,3.80
2019,02,15,11,56,3.80
2019,02,15,11,57,3.80
2019,02,15,11,58,3.80
2019,02,15,11,59,3.80
2019,02,15,12,00,3.90
2019,02,15,12,01,3.90
2019,02,15,12,02,3.90
2019,02,15,12,03,3.90
2019,02,15,12,04,3.90
2019,02,15,12,05,3.90
2019,02,15,12,06,3.90
2019,02,15,12,07,3.90
2019,02,15,12,08,4.00
2019,02,15,12,09,4.00
2019,02,15,12,10,4.00
2019,02,15,12,11,4.00
2019,02,15,12,12,4.10
2019,02,15,12,13,4.10
2019,02,15,12,14,4.20
2019,02,15,12,15,4.20
2019,02,15,12,16,4.20
2019,02,15,12,17,4.20
2019,02,15,12,18,4.20
2019,02,15,12,19,4.20
2019,02,15,12,20,4.20
2019,02,15,12,21,4.30
2019,02,15,12,22,4.30
2019,02,15,12,23,4.30
2019,02,15,12,24,4.30
2019,02,15,12,25,4.40
2019,02,15,12,26,4.40
2019,02,15,12,27,4.40
2019,02,15,12,28,4.40
2019,02,15,12,29,4.40
2019,02,15,12,30,4.50
2019,02,15,12,31,4.50
2019,02,15,12,32,4.50
2019,02,15,12,33,4.50
2019,02,15,12,34,4.50
2019,02,15,12,35,4.50
2019,02,15,12,36,4.50
2019,02,15,12,37,4.50
2019,02,15,12,38,4.50
2019,02,15,12,39,4.50
2019,02,15,12,40,4.50
2019,02,15,12,41,4.60
2019,02,15,12,42,4.60
2019,02,15,12,43,4.60
2019,02,15,12,44,4.60
2019,02,15,12,45,4.60
2019,02,15,12,46,4.60
2019,02,15,12,47,4.60
2019,02,15,12,48,4.60
2019,02,15,12,49,4.60
2019,02,15,12,50,4.60
2019,02,15,12,51,4.50
2019,02,15,12,52,4.50
2019,02,15,12,53,4.50
2019,02,15,12,54,4.50
2019,02,15,12,55,4.60
2019,02,15,12,56,4.60
2019,02,15,12,57,4.60
2019,02,15,12,58,4.60
2019,02,15,12,59,4.60
2019,02,15,13,00,4.60
2019,02,15,13,01,4.60
2019,02,15,13,02,4.60
2019,02,15,13,03,4.60
2019,02,15,13,04,4.60
2019,02,15,13,05,4.60
2019,02,15,13,06,4.60
2019,02,15,13,07,4.60
2019,02,15,13,08,4.60
2019,02,15,13,09,4.60
2019,02,15,13,10,4.60
2019,02,15,13,11,4.60
2019,02,15,13,12,4.60
2019,02,15,13,13,4.60
2019,02,15,13,14,4.60
2019,02,15,13,15,4.60
2019,02,15,13,16,4.60
2019,02,15,13,17,4.60
2019,02,15,13,18,4.60
2019,02,15,13,19,4.50
2019,02,15,13,20,4.50
2019,02,15,13,21,4.50
2019,02,15,13,22,4.50
2019,02,15,13,23,4.50
2019,02,15,13,24,4.50
2019,02,15,13,25,4.50
2019,02,15,13,26,4.40
2019,02,15,13,27,4.40
2019,02,15,13,28,4.40
2019,02,15,13,29,4.30
2019,02,15,13,30,4.40
2019,02,15,13,31,4.40
2019,02,15,13,32,4.40
2019,02,15,13,33,4.40
2019,02,15,13,34,4.40
2019,02,15,13,35,4.50
2019,02,15,13,36,4.50
2019,02,15,13,37,4.50
2019,02,15,13,38,4.60
2019,02,15,13,39,4.60
2019,02,15,13,40,4.60
2019,02,15,13,41,4.60
2019,02,15,13,42,4.70
2019,02,15,13,43,4.70
2019,02,15,13,44,4.70
2019,02,15,13,45,4.80
2019,02,15,13,46,4.80
2019,02,15,13,47,4.80
2019,02,15,13,48,4.90
2019,02,15,13,49,4.90
2019,02,15,13,50,4.90
2019,02,15,13,51,5.00
2019,02,15,13,52,5.10
2019,02,15,13,53,5.10
2019,02,15,13,54,5.10
2019,02,15,13,55,5.10
2019,02,15,13,56,5.20
2019,02,15,13,57,5.20
2019,02,15,13,58,5.20
2019,02,15,13,59,5.30
2019,02,15,14,00,5.30
2019,02,15,14,01,5.30
2019,02,15,14,02,5.30
2019,02,15,14,03,5.30
2019,02,15,14,04,5.30
2019,02,15,14,05,5.30
2019,02,15,14,06,5.30
2019,02,15,14,07,5.30
2019,02,15,14,08,5.40
2019,02,15,14,09,5.40
2019,02,15,14,10,5.40
2019,02,15,14,11,5.40
2019,02,15,14,12,5.50
2019,02,15,14,13,5.50
2019,02,15,14,14,5.50
2019,02,15,14,15,5.50
2019,02,15,14,16,5.50
2019,02,15,14,17,5.60
2019,02,15,14,18,5.60
2019,02,15,14,19,5.60
2019,02,15,14,20,5.60
2019,02,15,14,21,5.70
2019,02,15,14,22,5.70
2019,02,15,14,23,5.70
2019,02,15,14,24,5.70
2019,02,15,14,25,5.70
2019,02,15,14,26,5.70
2019,02,15,14,27,5.70
2019,02,15,14,28,5.70
2019,02,15,14,29,5.70
2019,02,15,14,30,5.70
2019,02,15,14,31,5.70
2019,02,15,14,32,5.70
2019,02,15,14,33,5.60
2019,02,15,14,34,5.60
2019,02,15,14,35,5.60
2019,02,15,14,36,5.60
2019,02,15,14,37,5.60
2019,02,15,14,38,5.60
2019,02,15,14,39,5.60
2019,02,15,14,40,5.60
2019,02,15,14,41,5.60
2019,02,15,14,42,5.50
2019,02,15,14,43,5.40
2019,02,15,14,44,5.40
2019,02,15,14,45,5.40
2019,02,15,14,46,5.40
2019,02,15,14,47,5.40
2019,02,15,14,48,5.40
2019,02,15,14,49,5.40
2019,02,15,14,50,5.40
2019,02,15,14,51,5.40
2019,02,15,14,52,5.40
2019,02,15,14,53,5.40
2019,02,15,14,54,5.40
2019,02,15,14,55,5.40
2019,02,15,14,56,5.40
2019,02,15,14,57,5.40
2019,02,15,14,58,5.40
2019,02,15,14,59,5.50
2019,02,15,15,00,5.50
2019,02,15,15,01,5.50
2019,02,15,15,02,5.50
2019,02,15,15,03,5.50
2019,02,15,15,04,5.60
2019,02,15,15,05,5.60
2019,02,15,15,06,5.60
2019,02,15,15,07,5.60
2019,02,15,15,08,5.60
2019,02,15,15,09,5.70
2019,02,15,15,10,5.60
2019,02,15,15,11,5.60
2019,02,15,15,12,5.60
2019,02,15,15,13,5.60
2019,02,15,15,14,5.70
2019,02,15,15,15,5.70
2019,02,15,15,16,5.70
2019,02,15,15,17,5.70
2019,02,15,15,18,5.70
2019,02,15,15,19,5.70
2019,02,15,15,20,5.70
2019,02,15,15,21,5.70
2019,02,15,15,22,5.70
2019,02,15,15,23,5.70
2019,02,15,15,24,5.80
2019,02,15,15,25,5.80
2019,02,15,15,26,5.80
2019,02,15,15,27,5.80
2019,02,15,15,28,5.80
2019,02,15,15,29,5.70
2019,02,15,15,30,5.70
2019,02,15,15,31,5.70
2019,02,15,15,32,5.70
2019,02,15,15,33,5.70
2019,02,15,15,34,5.70
2019,02,15,15,35,5.70
2019,02,15,15,36,5.70
2019,02,15,15,37,5.70
2019,02,15,15,38,5.70
2019,02,15,15,39,5.60
2019,02,15,15,40,5.60
2019,02,15,15,41,5.60
2019,02,15,15,42,5.60
2019,02,15,15,43,5.60
2019,02,15,15,44,5.60
2019,02,15,15,45,5.60
2019,02,15,15,46,5.60
2019,02,15,15,47,5.60
2019,02,15,15,48,5.60
2019,02,15,15,49,5.60
2019,02,15,15,50,5.60
2019,02,15,15,51,5.60
2019,02,15,15,52,5.60
2019,02,15,15,53,5.60
2019,02,15,15,54,5.60
2019,02,15,15,55,5.60
2019,02,15,15,56,5.50
2019,02,15,15,57,5.50
2019,02,15,15,58,5.50
2019,02,15,15,59,5.40
2019,02,15,16,00,5.40
2019,02,15,16,01,5.40
2019,02,15,16,02,5.40
2019,02,15,16,03,5.30
2019,02,15,16,04,5.30
2019,02,15,16,05,5.30
2019,02,15,16,06,5.40
2019,02,15,16,07,5.40
2019,02,15,16,08,5.40
2019,02,15,16,09,5.40
2019,02,15,16,10,5.40
2019,02,15,16,11,5.40
2019,02,15,16,12,5.50
2019,02,15,16,13,5.50
2019,02,15,16,14,5.50
2019,02,15,16,15,5.50
2019,02,15,16,16,5.50
2019,02,15,16,17,5.50
2019,02,15,16,18,5.60
2019,02,15,16,19,5.60
2019,02,15,16,20,5.60
2019,02,15,16,21,5.60
2019,02,15,16,22,5.60
2019,02,15,16,23,5.60
2019,02,15,16,24,5.60
2019,02,15,16,25,5.60
2019,02,15,16,26,5.60
2019,02,15,16,27,5.60
2019,02,15,16,28,5.50
2019,02,15,16,29,5.50
2019,02,15,16,30,5.50
2019,02,15,16,31,5.50
2019,02,15,16,32,5.40
2019,02,15,16,33,5.40
2019,02,15,16,34,5.40
2019,02,15,16,35,5.40
2019,02,15,16,36,5.40
2019,02,15,16,37,5.40
2019,02,15,16,38,5.40
2019,02,15,16,39,5.40
2019,02,15,16,40,5.40
2019,02,15,16,41,5.40
2019,02,15,16,42,5.40
2019,02,15,16,43,5.30
2019,02,15,16,44,5.40
2019,02,15,16,45,5.40
2019,02,15,16,46,5.40
2019,02,15,16,47,5.40
2019,02,15,16,48,5.40
2019,02,15,16,49,5.40
2019,02,15,16,50,5.30
2019,02,15,16,51,5.40
2019,02,15,16,52,5.30
2019,02,15,16,53,5.30
2019,02,15,16,54,5.30
2019,02,15,16,55,5.30
2019,02,15,16,56,5.30
2019,02,15,16,57,5.30
2019,02,15,16,58,5.30
2019,02,15,16,59,5.30
2019,02,15,17,00,5.30
2019,02,15,17,01,5.30
2019,02,15,17,02,5.30
2019,02,15,17,03,5.30
2019,02,15,17,04,5.30
2019,02,15,17,05,5.30
2019,02,15,17,06,5.30
2019,02,15,17,07,5.30
2019,02,15,17,08,5.30
2019,02,15,17,09,5.30
2019,02,15,17,10,5.30
2019,02,15,17,11,5.30
2019,02,15,17,12,5.30
2019,02,15,17,13,5.30
2019,02,15,17,14,5.30
2019,02,15,17,15,5.30
2019,02,15,17,16,5.30
2019,02,15,17,17,5.30
2019,02,15,17,18,5.20
2019,02,15,17,19,5.20
2019,02,15,17,20,5.20
2019,02,15,17,21,5.20
2019,02,15,17,22,5.20
2019,02,15,17,23,5.20
2019,02,15,17,24,5.20
2019,02,15,17,25,5.10
2019,02,15,17,26,5.10
2019,02,15,17,27,5.10
2019,02,15,17,28,5.10
2019,02,15,17,29,5.10
2019,02,15,17,30,5.00
2019,02,15,17,31,4.90
2019,02,15,17,32,4.90
2019,02,15,17,33,4.90
2019,02,15,17,34,4.90
2019,02,15,17,35,4.80
2019,02,15,17,36,4.80
2019,02,15,17,37,4.80
2019,02,15,17,38,4.70
2019,02,15,17,39,4.70
2019,02,15,17,40,4.60
2019,02,15,17,41,4.60
2019,02,15,17,42,4.50
2019,02,15,17,43,4.50
2019,02,15,17,44,4.40
2019,02,15,17,45,4.40
2019,02,15,17,46,4.30
2019,02,15,17,47,4.20
2019,02,15,17,48,4.20
2019,02,15,17,49,4.20
2019,02,15,17,50,4.20
2019,02,15,17,51,4.20
2019,02,15,17,52,4.20
2019,02,15,17,53,4.20
2019,02,15,17,54,4.20
2019,02,15,17,55,4.20
2019,02,15,17,56,4.20
2019,02,15,17,57,4.20
2019,02,15,17,58,4.20
2019,02,15,17,59,4.20
2019,02,15,18,00,4.10
2019,02,15,18,01,4.10
2019,02,15,18,02,4.10
2019,02,15,18,03,4.10
2019,02,15,18,04,4.00
2019,02,15,18,05,4.00
2019,02,15,18,06,4.00